GFSSGP_con_mucape_057.txt.gz
CAPE
1372 1101 1052 764 968 805 0 0 0 120 313 335 219 48 1 273 353 175 885 1078 1386 1720 2283 2643 3396 3621 3531 3458 3382 3060 2692 2342 2282 2570 2382 2247 2072 1634 1249 1288 1759 1755 1818 1729 1686 1543 1461 1671 1281
789 1058 958 1131 1002 0 0 0 0 300 556 542 476 488 457 390 542 596 616 1111 1434 1581 1929 2518 3173 3377 3538 3402 3363 3277 2851 2164 2349 2518 2446 2261 2376 2038 1863 1446 753 1217 1434 1561 1565 1700 1533 1291 1141
1013 877 1373 1638 134 0 0 0 20 190 358 672 664 734 697 523 559 637 819 983 1184 1521 2124 2484 3318 3352 3159 3352 3325 3213 3042 2752 2511 2304 2039 2087 2099 2210 1832 1678 1083 887 617 1357 1503 1505 1149 914 1331
1471 2348 1955 1174 7 0 0 0 21 121 210 395 501 730 651 518 703 725 837 751 1279 1885 2424 3127 3194 2741 2868 3341 3351 3227 3134 2905 2727 2095 2018 1917 2065 2001 1968 1736 1696 1712 1015 923 1183 1483 1077 1268 1355
67 345 163 20 31 1 0 3 42 138 385 525 905 772 858 649 961 1296 1236 1342 1389 1762 2380 2629 3225 3191 3189 3305 3252 2960 2981 2955 2684 2179 2029 2024 1956 2099 2304 2025 1792 1727 1695 1193 1171 1034 1493 1432 1445
105 12 83 34 82 8 0 0 84 237 533 692 909 822 681 690 791 1469 1411 1219 1261 1577 2131 2228 2877 3020 2962 2647 2551 2479 2362 2228 2282 2183 2061 1946 1990 2147 2170 2073 1891 1755 1612 1781 992 991 1373 1475 1586
529 113 205 49 31 15 1 0 64 148 363 629 840 800 729 830 873 1536 1730 1455 1159 1496 1799 2201 2315 2229 2391 2358 2310 2294 2277 2260 2633 2613 2621 2248 1916 1753 1666 2074 1963 1449 1411 1551 1602 1023 1061 1386 1571
199 60 30 4 46 1 1 18 110 141 264 748 747 902 861 872 938 1269 1392 1462 1418 1604 1606 1781 2148 2120 2073 2152 2478 2654 2672 2103 2133 2283 2355 2234 2109 1956 1875 2257 2122 1355 1309 1157 1095 1364 1473 1257 1968
35 77 10 28 6 20 8 110 63 153 539 680 724 973 940 938 941 1253 1317 1709 1732 1789 1681 1746 1864 1830 1803 2050 2377 2949 2375 2323 2153 1957 2152 2112 1934 1672 1652 1877 1839 1425 1315 1235 1051 1387 1906 1527 764
22 3 15 15 0 36 38 70 140 231 543 1031 1032 995 954 1002 989 1184 1115 1285 1277 1617 1969 2034 1912 2062 2015 2293 2146 2138 2039 1730 2130 2004 1844 1763 1541 1196 1287 1489 2023 1674 1490 1463 1401 1529 1604 1502 813
2 1 1 5 3 68 131 161 40 200 533 899 937 1029 1095 1018 1095 1216 964 1141 1531 1739 1931 2127 2112 2181 1829 1855 1970 1734 1890 1635 1572 1661 1750 1649 1429 963 769 1108 1013 1239 1431 1143 1339 1334 1233 1095 982
8 8 32 51 84 204 17 23 3 187 412 838 942 1149 1186 1168 1169 1136 1183 1143 1118 1987 1918 2064 2244 2195 1780 726 123 1131 1464 1472 1119 1422 1471 1029 787 725 677 786 535 711 677 851 479 561 622 689 632
3 58 127 107 71 168 153 112 145 314 645 901 1116 1263 1313 1285 1263 1184 1340 1238 1229 1815 2041 2151 2207 2215 1483 1153 1074 803 674 664 319 556 731 315 522 607 624 503 578 381 147 431 372 210 0 48 464
46 47 53 1 5 138 99 88 292 484 657 861 1114 1279 1311 1365 1445 1301 1349 1274 1405 1748 1908 1846 2073 2223 2016 1834 1376 884 548 963 699 601 263 19 573 974 815 535 218 130 386 267 164 8 10 218 234
0 40 23 4 10 116 64 75 28 151 490 812 974 1053 1151 1287 1369 1323 1402 1370 1554 1810 2155 1996 2552 2346 2119 2206 1853 1422 1054 983 475 270 282 504 630 645 548 522 371 90 300 41 22 4 0 192 342
5 4 16 20 9 55 48 1 40 0 103 580 887 949 1142 1146 1291 1302 1719 1461 1933 2104 2687 2733 2842 2382 2146 2195 1842 1485 508 483 302 131 129 131 514 454 506 476 151 202 193 79 76 23 49 95 278
0 0 0 15 13 18 17 23 75 69 297 480 688 959 1157 1186 1311 1698 2060 1996 2126 2363 2778 2925 2555 2224 2048 1882 1595 1196 610 252 124 72 33 17 256 408 412 323 205 145 31 28 73 192 237 266 412
9 0 0 0 5 28 17 38 69 174 188 306 635 1024 1271 1527 1576 1750 1919 2216 2652 2796 3189 2731 2503 2401 2100 1781 1668 1256 400 257 213 160 112 149 38 301 311 254 114 208 181 113 116 103 211 185 14
13 0 0 0 47 36 11 2 146 277 162 470 587 1230 1443 1576 1828 1825 1940 2541 2793 3269 3365 2873 2734 2583 1871 1784 1933 1507 379 94 107 4 163 121 133 231 477 454 329 413 541 528 560 172 5 136 190
18 4 0 9 15 19 31 3 4 151 294 496 706 1162 417 1445 1883 1857 2157 2675 2900 3475 3424 3327 2962 2635 2384 2122 2110 1291 417 114 43 74 334 204 153 579 585 528 461 457 584 388 280 168 108 121 203
0 5 0 29 34 5 7 0 78 73 90 558 703 1112 887 1522 1845 1958 2314 2746 3166 3480 3834 3454 3026 2747 2542 2280 1711 1043 722 368 310 500 925 1299 1380 1281 954 608 460 503 433 406 407 387 275 322 244
0 0 0 5 23 0 7 0 41 13 20 369 1364 1178 1227 1471 1994 2214 2566 2751 3467 3753 4127 3515 3100 2909 2419 1929 1358 699 430 588 751 1146 1228 1255 1225 1017 909 463 333 193 190 188 265 348 270 170 139
0 1 0 0 0 2 0 0 66 56 26 3 32 169 1519 1611 2353 2648 2925 3024 3460 3987 4273 3604 3372 3007 2762 2396 1693 1292 824 868 1284 1306 1342 1071 989 757 394 378 213 90 56 113 209 234 276 327 379
0 0 0 0 0 0 0 0 17 0 0 3 197 420 1866 2464 2809 3038 3312 3332 3339 4223 4121 3593 3331 2875 2889 1834 1824 1000 1055 1348 1380 1122 1220 893 708 507 599 323 122 8 0 80 6 235 364 390 381
0 0 0 0 0 0 10 45 114 63 49 309 595 1790 2343 2830 3025 3340 3587 3522 3753 4107 4085 3499 3103 2730 2342 1774 1446 1558 1840 1501 978 957 762 567 674 488 357 183 80 44 3 302 206 9 47 137 199
0 0 0 0 8 4 2 1 19 232 391 515 800 918 1962 2848 2702 346 2654 3874 3777 3861 3924 3433 2724 2555 3251 1707 1635 1425 1872 1199 803 589 417 529 416 301 203 147 106 2 0 91 71 10 16 11 1
0 0 0 0 0 0 8 37 27 123 384 453 193 1099 1868 3047 2228 2323 3524 3933 3742 3613 3720 3360 2532 2237 1917 1718 1572 1528 1113 592 198 162 394 420 389 182 112 132 114 146 5 5 32 31 89 116 142
0 0 0 0 0 4 118 69 101 253 684 1271 1858 1982 2047 2356 3205 3703 4041 3924 3634 3485 3492 3085 2763 2352 1965 1499 1547 1368 420 261 46 1 320 355 214 140 87 92 57 30 9 27 1 2 13 7 2
0 0 0 23 131 15 82 5 58 337 341 767 1239 1849 1983 2575 3577 3880 4012 3827 3599 3547 3401 2893 2635 2060 1846 1299 1202 1129 1033 146 171 195 350 328 207 139 63 110 209 3 0 0 0 3 2 3 1
0 0 0 2 71 168 48 0 137 248 67 29 1026 180 2279 2269 2722 3517 3824 3577 3473 3419 3070 2720 2124 1692 1633 1475 1350 1077 59 197 311 305 201 187 111 116 53 40 6 0 0 0 0 0 0 0 0

GFSSGP_con_mucape_063.txt.gz
CAPE
1105 914 662 509 350 168 65 206 253 257 326 232 348 250 325 549 230 141 994 1363 1871 2159 2708 3070 3427 3120 2805 2444 2306 2358 2297 2305 2226 2203 2214 2248 2351 2278 2271 2166 1979 1749 2105 1886 1620 1557 1497 1234 968
1011 909 644 897 175 73 166 282 276 156 118 192 281 417 563 738 1031 1152 1325 1735 1907 2217 2574 2893 3547 3372 2865 2659 2492 2453 2340 2301 2404 2267 1896 2123 1581 1657 2245 2220 2148 2131 2037 1843 1536 1804 1556 1283 789
1053 697 958 975 235 34 199 381 404 452 306 401 530 587 725 863 1094 1185 1452 1865 2074 2253 2581 2819 3413 3316 2821 2825 2770 2627 2459 2396 2301 2395 2299 2168 2080 1936 1311 1649 1880 1862 1877 2028 1674 1875 1317 1308 1032
951 684 1026 98 0 29 278 494 573 636 638 519 541 588 684 859 999 1313 1591 1826 1992 2280 2432 3289 3375 2707 2659 2784 2719 2625 2476 2294 2274 2247 2279 2134 2138 2207 2001 1558 1235 1345 1775 1822 1670 1192 958 1567 1151
545 212 5 1 0 182 312 538 517 614 633 617 643 784 874 865 1305 1377 1450 1618 1919 2199 2636 2695 3346 3287 3171 2700 2644 2544 2464 2363 2266 2229 2236 2162 2198 2191 2000 2072 1956 1521 1302 1546 1697 1233 1389 1372 1513
93 0 0 1 0 62 293 484 641 683 748 645 689 727 908 1018 1092 1214 1443 1602 1788 2306 2552 2601 3078 3035 2758 2631 2632 2517 2313 2325 2387 2349 2332 2303 2175 1861 1952 2026 1974 2029 1684 1416 1415 1705 1512 1607 1577
441 0 5 0 21 125 304 457 653 668 640 666 644 827 846 893 908 1173 1652 1788 1996 2347 2504 2583 2561 2425 2682 2706 2621 2479 2371 2490 2532 2493 2359 2301 2053 2089 2002 2066 1912 1931 1988 1658 1339 1262 1707 1665 1705
498 1 0 0 0 48 309 399 723 650 861 728 723 772 929 951 1088 1438 1541 1694 2056 2187 2291 2383 2400 2311 2306 2335 2635 2536 2438 2372 2470 2354 2323 2125 2054 1917 1881 2163 2031 1599 1485 1971 1777 1298 1325 1587 1603
140 13 0 0 0 136 339 440 752 738 745 777 819 766 970 1167 1194 1286 1433 1536 1672 1895 2095 2153 2179 2204 2212 2147 2208 2729 2418 2454 2450 2336 2412 2257 1851 1790 1776 2036 1988 1624 1454 1288 1389 1611 1482 1416 1588
14 5 0 0 0 73 142 208 579 715 700 936 808 1189 1271 1262 1119 1136 1147 1161 1348 1600 1823 1914 1926 1962 1977 2061 2099 2218 1968 1918 1876 1910 2141 2254 1905 1682 1609 1831 1984 1661 1643 1473 1279 1345 1563 1526 936
6 8 10 18 11 35 38 53 639 872 957 859 780 1379 1543 1406 1147 1199 1202 1060 1092 1304 1417 1634 1782 1777 1732 1898 2016 2024 1933 1915 1883 1739 1577 1862 1595 1465 1541 1310 1147 1296 1720 1363 1328 1123 1096 1161 1022
0 5 7 4 166 26 34 99 258 720 772 911 908 1308 1503 1451 1342 1395 1372 1398 1465 1467 1417 1504 1578 1527 1491 1600 1968 1954 1678 1642 1467 1753 1794 1340 1332 1091 958 1145 1053 946 1225 1084 1009 922 573 311 200
0 2 2 0 14 47 62 91 116 368 907 998 948 1046 1417 1510 1544 1492 1559 1617 1662 1630 1651 1749 1702 1585 1613 1638 1946 1684 1450 1328 925 804 718 903 914 725 538 608 651 590 666 829 452 309 279 74 0
0 0 0 0 8 28 59 103 331 509 875 1024 981 984 1038 1197 1364 1419 1466 1628 1679 1688 1765 1802 1846 1740 1793 1806 1723 1488 1356 612 304 451 221 533 489 531 460 460 474 401 438 462 284 199 171 2 0
8 0 14 2 4 27 41 100 270 575 891 973 1032 1049 1063 1070 1200 1365 1303 1355 1572 1624 1710 1775 1931 1921 1948 1603 1137 990 544 440 226 166 117 215 290 197 450 292 317 203 116 88 79 95 42 2 0
0 0 0 55 28 34 82 60 238 748 859 976 1082 1083 1098 1120 1163 1222 1256 1284 1444 1734 1814 1866 1946 2072 1894 1518 1450 1276 1199 547 354 191 113 90 98 361 422 200 133 68 67 57 14 0 0 0 5
1 0 0 25 61 52 81 62 131 736 881 976 1154 1196 1216 1278 1278 1366 1410 1402 1460 1720 1931 1951 1972 2150 2021 1822 1622 1381 339 227 186 146 94 124 336 217 174 133 45 32 91 83 26 0 4 7 87
14 14 0 0 7 0 61 52 2 653 956 1037 1186 1260 1279 1379 1447 1487 1528 1414 1411 1594 1877 1943 2161 2086 2020 1689 1483 895 353 201 78 38 67 54 66 132 203 123 38 55 34 15 51 84 51 33 111
20 16 1 0 0 0 0 13 4 550 772 1012 1162 1186 1201 1254 1429 1508 1542 1395 1435 1758 1790 1977 2264 2284 1988 1838 1559 1085 42 255 165 93 49 37 41 53 189 106 81 90 117 164 167 89 102 93 34
2 0 0 0 8 0 1 4 0 17 137 303 884 886 1027 1110 1244 1420 1509 1611 1867 2022 2040 2039 2251 2109 2057 1982 1687 1293 53 20 9 68 154 118 65 117 139 105 121 188 189 202 165 126 120 32 3
3 0 0 0 0 0 2 0 0 3 13 63 259 501 890 1123 987 1344 1549 1848 2182 2355 2253 2205 2270 2175 2129 1796 1791 1414 772 0 19 410 645 608 356 363 422 338 317 239 227 148 140 109 81 57 17
0 0 0 0 0 2 0 0 2 0 40 60 144 579 959 1015 900 1169 1505 1883 2204 2504 2334 2279 2239 2112 2122 1810 1612 1526 805 45 64 406 680 1105 813 740 648 372 218 137 83 71 83 104 85 6 0
0 0 0 0 0 0 0 0 0 0 24 61 45 334 735 1004 867 1294 1419 1790 2414 2485 2255 1931 1589 1869 1995 1959 1665 882 220 260 654 750 1028 871 599 424 314 191 102 42 21 25 60 63 18 48 64
0 0 0 0 0 0 0 0 0 0 18 55 76 282 358 835 869 1240 1415 2037 2786 2854 2380 1983 790 1693 1950 1829 1450 781 208 760 833 904 791 647 503 348 314 128 18 0 0 1 18 77 56 57 78
0 0 0 0 0 0 0 0 0 1 1 16 127 270 316 582 970 1243 1996 2635 3424 3355 2879 2388 1385 1699 2032 1863 1320 1140 841 1228 938 729 448 461 376 268 199 35 0 0 0 2 1 0 0 0 12
0 0 0 0 0 0 0 0 0 102 368 173 12 27 491 821 1528 1890 1581 3076 3659 3384 3118 2635 2005 2124 2053 1647 1252 1170 1109 1198 567 330 237 244 182 137 130 11 0 0 0 0 4 11 9 2 0
0 0 0 0 0 0 0 0 0 630 1070 1384 745 623 1084 1332 1371 1770 1518 1531 3352 3418 3137 2744 2420 2064 1594 1144 1131 1113 1086 361 165 108 105 147 157 139 133 2 3 0 6 9 20 8 11 4 0
0 0 0 0 0 0 0 0 0 816 897 1584 1286 1054 1162 1285 1363 1030 486 498 1498 3012 3106 2648 2369 1892 1455 1337 1276 1177 830 98 4 28 93 112 111 82 65 10 0 0 1 4 4 0 0 0 2
0 0 0 0 0 0 0 0 49 850 1215 1709 1572 1517 1462 1469 1462 449 373 374 364 1606 2786 2491 2260 1724 1475 1417 1288 1160 628 5 33 50 59 68 43 20 9 0 0 0 0 0 0 0 0 0 0
0 0 0 0 0 0 0 4 115 1157 1385 1657 2145 1875 1713 1369 329 177 215 127 335 1658 2706 2459 2008 1732 1511 1294 910 781 475 16 155 88 70 46 0 0 0 0 0 0 0 0 0 0 0 0 0

GFSSGP_con_mucape_069.txt.gz
CAPE
1011 978 674 378 213 29 10 9 180 263 299 233 310 295 521 796 301 510 1293 1464 1549 1649 1834 2127 2797 2617 2262 2310 2486 2487 2615 2217 2228 2291 2125 2013 2014 2132 1889 1814 1715 1811 1478 1764 1705 1535 1505 1074 456
774 625 436 854 21 0 36 96 81 152 206 344 407 510 569 1004 1233 1349 1406 1779 1647 1807 1959 2209 2712 2763 2527 2613 2646 2295 2553 2557 2561 2527 2457 2437 2272 2109 2035 1738 1979 1784 1798 1951 1704 1426 1293 749 674
601 512 1015 572 0 1 31 204 169 180 357 433 473 601 692 787 1193 1167 1682 1821 1941 2067 2038 2466 2709 2908 2313 2503 2764 2683 2605 2405 2374 2331 2345 2325 2353 2014 1892 1644 1744 1781 1863 1787 1819 1538 909 1046 969
684 938 845 16 0 7 154 311 291 456 395 325 403 402 759 1025 1222 1397 1903 1774 1981 2042 1977 2726 2944 2810 2319 2523 2607 2551 2762 2629 2133 2233 1998 1790 1801 2101 1835 1862 1692 1737 1792 1564 1591 1296 1129 1269 1143
589 435 0 7 52 192 331 450 611 464 391 513 466 540 819 1233 1333 1859 1959 1711 1838 2090 2066 2476 3122 2929 3127 2876 2557 2765 2519 2417 2379 2185 2208 2278 2100 1792 1549 1499 1681 1792 1854 1640 1654 1140 1316 1116 1132
113 0 0 0 81 245 518 625 649 561 559 601 521 729 1032 1572 1634 1807 1693 1707 1667 1961 2082 2457 2888 3119 3015 2617 2547 2560 2496 2402 2239 2375 2207 2178 2368 2272 1901 1991 1723 1448 1621 1772 1158 1108 1692 1110 863
267 0 0 0 40 225 357 576 582 430 485 526 698 843 1229 1364 1452 1615 1644 1826 1949 2040 2292 2571 2630 2815 2918 2834 2610 2540 2375 2402 2397 2418 2350 2139 2276 2153 2040 2168 2166 1872 1436 1508 1620 1339 1486 1179 786
212 0 0 0 44 26 269 552 525 347 388 676 763 561 1067 1212 1306 1498 1647 1872 2031 2122 2226 2391 2627 2568 2612 2602 2741 2560 2242 2436 2506 2486 2472 2370 2189 1882 1887 2474 2140 1990 2035 1596 1425 1545 1693 1449 1133
29 0 0 0 5 29 301 542 603 569 700 561 699 870 1018 1247 1272 1399 1572 1752 1992 2129 2192 2335 2407 2659 2819 2747 2582 2807 2443 2329 2123 2308 2160 2118 1786 1742 1770 1691 1764 1812 1565 1627 1471 1152 1704 1789 1776
16 0 0 0 0 52 335 534 547 773 569 785 883 1096 1142 1400 1289 1157 1348 1423 1696 1808 2030 2130 2244 2306 2561 2168 2695 2715 2409 2235 2132 1968 2131 2372 1808 2111 1688 1843 1664 1565 1441 1399 1559 1605 1146 1596 990
2 0 0 0 0 103 193 301 676 675 566 653 977 1249 1347 1456 1180 1142 1638 1431 1438 1585 1683 2038 2182 2307 2212 2148 2538 2358 2671 2712 2567 1828 2323 2195 2153 2365 2121 1957 1934 1714 1778 1271 1272 1307 1140 1210 1317
0 0 0 0 20 111 188 242 535 611 281 638 943 1206 1423 1522 1479 1275 1627 1910 1593 1591 1569 1576 2037 2246 2319 2264 2134 2351 2192 1298 244 1135 1691 2508 2266 2113 2291 1792 2249 2333 2541 1964 1706 1190 1188 1284 1301
0 0 0 1 0 28 20 154 276 685 581 922 1002 1300 1458 1513 1536 1686 1772 1945 1650 1414 1459 1544 1895 2189 2132 2324 2120 2477 2064 1520 454 500 1096 1386 1703 1971 2022 2176 2209 2098 2415 2076 1801 1574 1285 961 718
3 0 0 0 0 18 57 48 104 209 798 1003 1116 1357 1453 1524 1564 1665 1764 1961 1915 1690 1653 1572 1852 2058 2121 2215 2282 2244 2199 2113 1186 425 732 650 984 768 928 1477 1828 1995 1626 2073 1565 1064 1030 1049 569
0 4 2 0 3 36 89 94 162 367 836 1083 1098 1395 1492 1660 1642 1732 1834 2061 2212 2205 2131 2170 2004 2034 2161 2343 2332 2251 1553 1434 1365 760 137 284 283 579 200 371 1318 1596 1643 1656 1591 1258 818 667 578
0 8 17 4 10 60 95 115 104 321 859 948 1068 1319 1518 1699 1744 1783 1921 2158 2331 2376 2385 2547 2065 2266 2495 2529 2520 2271 1837 1406 1143 731 300 167 89 165 182 208 327 1380 1087 1089 1093 944 489 448 432
3 16 9 6 37 95 66 198 40 453 826 1000 1097 1228 1348 1464 1703 1863 1968 1984 2147 2343 2424 2575 2604 2650 2775 2605 2363 2010 1460 1045 725 709 635 390 464 98 105 437 1061 858 582 642 563 422 296 306 279
0 2 0 0 13 76 134 176 139 447 802 962 1104 1246 1276 1226 1291 1543 1777 1807 1849 2032 2322 2525 2614 2785 2670 2397 2016 1508 940 633 519 657 720 611 613 530 527 246 471 627 514 469 433 497 449 341 255
0 0 0 0 0 0 0 99 209 167 677 848 944 1269 1327 1201 1205 1355 1358 1588 1674 1746 2119 2352 2567 2787 2117 1653 1740 1237 888 778 496 375 401 613 602 679 323 260 186 188 210 253 366 510 525 548 590
0 0 0 0 5 0 0 79 145 137 154 363 776 1031 1183 1102 1190 1342 1516 1642 1652 1782 2037 2004 1699 1766 1601 1595 1703 1467 687 519 512 473 452 384 379 381 571 816 711 621 451 604 709 560 789 681 561
0 0 0 0 6 0 0 0 0 7 32 101 315 762 1009 1088 1133 1345 1600 1768 1681 2023 1208 961 651 722 869 1172 1373 997 616 236 267 295 330 478 566 514 420 582 630 644 783 866 1091 843 848 1080 137
0 0 0 0 0 0 0 0 8 0 12 42 63 288 729 901 1061 1302 1601 1824 1869 1222 1168 940 79 359 404 538 1319 1214 1007 853 295 464 846 1140 903 687 750 964 900 982 1058 1099 1079 872 907 918 663
0 0 0 0 0 0 0 0 0 0 0 60 10 48 122 454 883 1100 1379 1724 1325 1160 1154 888 283 0 0 278 1061 1334 1239 811 393 927 1633 1927 1702 1464 1240 1290 1080 1012 729 725 810 851 815 742 650
0 0 0 0 0 0 0 0 0 0 28 41 34 64 155 307 567 830 1226 2043 1373 1198 1057 577 435 24 105 86 547 1126 1291 1047 886 1296 1891 1659 1350 1361 1089 731 563 426 321 325 355 682 720 723 670
0 0 0 0 0 0 0 0 0 0 0 195 711 580 128 610 716 1108 1758 2259 1492 1007 652 530 375 481 404 232 442 669 1171 850 1624 2040 2075 1728 478 500 957 454 411 254 259 208 283 373 400 489 552
0 0 0 0 0 0 0 0 0 0 619 782 561 296 175 609 1222 1725 2265 2710 1630 1539 964 1075 809 859 158 531 589 963 1014 772 1694 1765 1517 284 468 256 335 249 258 200 124 125 196 141 209 348 440
0 0 0 0 0 0 0 0 0 0 406 991 892 824 698 839 1225 1810 1995 2102 2478 1796 1274 1216 1165 890 916 1059 1488 1816 1763 1655 1606 1217 730 451 554 117 56 221 165 118 155 318 428 227 140 346 291
0 0 0 0 0 0 0 0 0 99 138 1256 1182 1185 1223 1136 1337 1588 1293 924 1329 1975 3059 2297 1830 1056 1082 1561 1908 1597 1383 1011 965 871 906 838 706 518 453 333 129 91 131 146 173 127 130 255 240
0 0 0 0 0 0 0 0 131 251 433 1631 1418 1469 1652 1489 1463 1044 946 918 989 2049 2285 1936 1880 1652 1293 1444 1274 826 506 367 781 801 811 776 760 760 485 244 88 44 45 16 7 7 58 174 281
0 0 0 0 0 0 0 0 0 35 317 1399 1594 1530 1183 862 1065 1072 831 927 1111 1631 1586 1919 1737 1484 1383 1208 857 705 268 571 659 725 683 674 680 562 210 104 23 2 0 0 0 0 3 87 131

GFSSGP_con_mucape_075.txt.gz
CAPE
755 644 1265 1549 1579 284 97 179 222 352 341 431 442 565 720 980 1242 930 1347 1692 1560 1524 1247 1573 2869 2363 2517 2830 2946 2689 2389 2101 1963 2155 2176 1772 1741 1624 1682 1758 1559 1513 1451 1579 1362 1452 1137 1045 807
1115 1211 1301 1494 524 8 7 13 126 323 371 383 385 553 752 1234 1017 1174 1568 1544 1521 1716 1281 1028 2926 2731 2400 2465 2708 2880 2786 2538 2255 2418 2239 2051 1753 1956 1659 1587 1711 1504 1725 1529 1598 1272 982 701 699
1584 1030 1677 1282 16 1 15 38 135 232 334 306 262 510 705 811 712 1102 1597 1440 1599 1693 1673 1796 2660 2650 2484 2584 2439 2299 2370 2471 2447 2297 2164 1896 1852 2029 1676 1746 1827 1870 1784 1612 1513 1382 849 715 793
1218 1719 1926 139 24 1 25 92 152 114 117 149 229 566 776 651 872 1180 1536 1433 1484 1615 1953 2230 2623 2576 2591 2712 2575 2682 2593 2503 2587 2335 2346 2151 1877 1914 1664 1602 1703 1776 1822 1743 1486 1011 964 802 1107
1362 1366 269 57 28 12 58 122 0 16 116 170 173 538 905 1167 1177 1248 1419 1392 1324 2423 2628 2385 3105 2746 2494 2539 2331 2397 2481 2487 2449 2303 1964 1777 2076 1839 1699 1712 1517 1768 1593 1675 1521 1190 1407 1171 1479
1169 659 99 83 55 29 85 65 0 49 120 173 245 616 1254 1086 1100 1213 1299 1360 1204 2145 2108 2298 2947 2708 2525 2461 2412 2451 2470 2372 2198 2193 2104 1960 1754 1664 1520 1395 1566 1619 1826 1621 1398 1432 1140 1475 1348
1154 201 115 82 59 72 115 36 0 4 10 150 291 577 799 841 1116 1117 1280 1310 1223 1175 2215 2441 2380 2711 2503 2444 2383 2350 2273 2300 2157 2179 2221 1987 2103 1919 1823 1822 1520 1510 1465 1528 1305 1395 1330 1150 1101
718 341 88 125 156 136 176 150 67 6 50 263 423 553 631 897 1006 1179 1501 1483 1332 1134 2537 2184 2530 2670 2501 2287 2408 2372 2321 2271 2195 2191 1988 1992 1979 1896 1691 1834 1976 1744 1483 1475 1464 1411 1730 1153 935
591 540 129 116 126 135 171 286 215 246 145 222 307 529 696 908 1314 1552 1789 1804 1724 1369 1304 2326 2399 2516 2679 2538 2447 2456 2403 2185 2063 2179 1897 1826 1485 1582 1280 1894 1701 1725 1700 1447 1318 1564 1571 1342 1037
178 138 7 5 41 141 135 213 273 541 337 323 429 680 817 867 1373 1572 1688 1641 1719 1505 1333 1278 1592 2359 2262 1679 2986 2536 2055 1679 1959 2019 2526 2035 1896 1806 1670 1303 1494 1562 1726 1637 1479 1300 1517 1616 492
74 80 0 18 1 11 151 217 338 385 469 430 433 708 803 1008 1253 1431 1508 1241 1668 1625 1535 1501 1502 1611 1389 1228 1601 2402 2085 2542 2557 2207 2134 2149 2412 1863 1246 1503 1621 964 1355 1009 1279 1035 936 789 558
0 36 0 1 0 0 60 120 286 371 408 232 324 603 781 900 1126 1302 1452 1387 1408 1607 1708 1840 1826 1885 1642 1447 1297 1482 1690 2316 1779 1319 1108 2642 1745 1510 1278 1352 1967 2136 3001 1352 1369 927 1099 1171 1429
0 4 1 1 0 10 2 57 106 275 442 379 325 581 855 807 948 1183 1406 1421 1379 1655 1806 1988 2296 2882 2416 2329 2071 1753 1372 1564 1342 596 973 796 674 1188 1330 1574 1860 2112 1737 1568 1674 1716 1473 1303 1927
3 0 0 0 12 32 50 22 87 184 347 590 425 567 829 845 925 1046 1359 1507 1528 1667 1869 1996 2570 2828 2711 2886 2704 2550 1995 1646 1416 1012 391 1121 666 1144 1277 2023 1346 1560 1906 1965 1471 2260 956 1364 873
0 0 0 2 38 41 40 28 52 118 276 682 628 581 729 789 919 1136 1219 1595 1694 1682 1914 2170 2526 2893 2971 2933 3000 3715 3919 2794 3331 2228 992 286 504 1362 1648 882 1924 2530 2741 2119 2846 1970 941 1111 1130
0 0 0 2 50 59 50 54 24 88 182 679 788 740 698 772 794 1063 1243 1601 1772 1832 2042 2370 2332 2707 3014 3540 3467 2775 2487 2917 3409 2410 2263 989 154 464 947 589 787 1817 1788 2689 2127 2617 1589 1208 1386
0 0 5 5 29 47 104 45 52 66 95 438 787 942 894 911 860 1024 1194 1341 1646 2016 2477 2732 2817 2808 3080 3226 2423 2635 2591 3584 3830 2637 1865 1317 395 505 471 459 772 1164 575 2127 1898 2143 2624 1703 1489
0 5 8 0 16 47 73 141 91 117 145 174 344 963 1087 1141 1037 999 1103 1149 1418 2030 2706 3302 4183 3500 3967 2942 3740 2731 3643 2761 2679 1344 877 2099 843 568 238 113 1037 973 846 841 1803 2068 1217 1099 999
0 0 0 0 0 0 0 13 17 11 45 133 199 500 1041 1126 1239 1185 1178 1251 1463 2015 3079 3611 3716 3897 4193 3244 1673 723 1268 1833 2004 1096 1072 1298 1683 686 433 276 787 731 846 1137 1075 775 1163 1484 1101
0 0 0 0 0 0 0 0 46 9 4 38 128 272 823 1069 1190 1327 1397 1381 1491 1953 3102 3762 3823 4479 3690 2595 792 162 547 2096 1871 1055 1151 1198 1796 1186 1186 772 437 389 218 149 334 510 1987 1393 2283
0 0 0 0 0 0 0 0 1 18 18 31 12 47 387 864 1040 1284 1753 1816 1784 2409 3168 3722 3479 3843 3168 2621 945 399 1479 2316 1934 1351 1118 1158 1113 1593 1405 917 625 347 201 167 727 364 673 812 1532
0 0 0 0 0 0 1 4 86 67 47 24 78 98 157 470 918 1128 1685 2127 2094 2711 3686 2749 2303 2808 2635 2933 2470 2395 1962 2220 1654 1322 912 1206 1209 1094 1618 1484 1190 1159 1245 581 1998 2055 1796 1716 2109
0 0 0 0 0 0 0 14 49 67 51 41 99 68 216 234 703 913 1589 2285 2378 3319 2249 1351 1260 1145 1729 3244 2562 2302 2426 1703 1982 1704 1187 1528 1714 1155 1009 1504 1452 1551 2260 1506 1295 780 552 805 2090
0 0 0 0 0 0 0 0 34 101 47 31 55 137 287 336 473 985 1341 2549 2836 3214 1612 867 1150 1082 1133 1108 1961 1583 1370 1752 3223 2366 1336 2510 2473 2396 1296 1179 1512 1664 1602 1404 1545 1475 1457 2145 1576
0 0 0 0 0 0 0 22 35 22 37 1 1 106 340 615 581 1170 1487 2851 3514 2676 1444 995 589 732 1128 1210 810 1204 1932 2290 2502 2517 2132 1566 1757 716 1414 991 1500 1395 1310 776 587 853 1570 1110 1288
0 0 0 0 11 43 26 14 77 43 1 0 3 315 404 959 981 1227 2006 3562 3225 2455 1769 1205 735 1418 1890 1737 1779 1976 2771 3353 3136 1536 1401 1501 577 656 795 732 801 707 478 315 509 650 920 1100 1384
0 0 0 0 0 6 24 49 51 0 0 0 14 804 833 1635 1473 1612 3041 3203 3055 2663 2122 1141 964 1550 2079 1637 2076 1740 1634 2337 1839 1830 1265 898 898 641 354 564 695 999 330 318 598 706 900 772 1207
0 0 0 0 0 20 43 22 82 39 14 371 1017 1506 1716 2060 2357 2273 2830 3096 2777 2575 2408 1977 1650 2167 2345 1933 2702 3000 2832 2046 2154 2231 1062 1034 795 641 201 166 404 246 306 266 407 615 592 656 690
0 0 0 21 32 48 56 38 154 29 423 786 1611 2038 1876 2207 2607 2766 2806 3089 2601 2573 2567 2128 2064 1623 2415 2700 3075 2670 2252 1745 1463 1368 1065 1127 993 733 651 743 609 169 171 169 209 409 325 247 832
7 6 0 19 26 39 64 23 205 218 450 787 1892 2236 2185 2277 2755 2395 2523 2726 2721 2810 2846 2815 2195 1415 2613 2625 2474 2229 1675 1431 1398 1178 1505 1284 1147 1095 1118 326 156 146 86 7 55 133 481 643 679

GFSSGP_con_mucape_078.txt.gz
CAPE
732 718 1053 1671 2097 1533 15 48 137 212 201 211 362 393 865 817 692 918 1221 1551 1383 938 1511 1948 3149 3003 3057 2941 2945 2723 2382 2190 1924 2036 2048 1711 1683 1603 1734 1632 1514 1377 1546 1519 1408 1404 1320 1227 918
730 1288 1290 1768 1682 0 0 32 113 248 271 116 351 522 626 796 828 1088 1224 1821 1446 999 772 1389 3007 3082 2937 3055 3084 2840 2256 2066 2063 2329 2102 1956 1642 1726 1904 1649 1745 1537 1433 1614 1558 1363 1005 831 1075
1009 1541 1321 1946 20 2 13 58 55 67 117 253 400 406 579 598 830 1151 1097 1640 1486 1176 868 2102 2989 2929 2492 2653 2847 2874 2713 2446 2403 2398 2231 1908 1801 1829 1484 1853 1736 1744 1658 1445 1497 1258 870 651 901
1770 1798 1561 618 1 0 0 0 2 54 69 113 442 475 549 618 912 1138 1001 1483 1219 1414 1655 2776 3059 2484 2475 2430 2560 2432 2360 2349 2269 2206 2118 1768 1793 1685 1548 1598 1725 1753 1663 1520 1525 892 757 805 988
1430 1421 1363 17 19 14 0 0 0 0 31 101 507 623 839 956 1076 1079 1001 1049 1369 1692 1723 1813 3165 2976 2615 2550 2674 2726 2642 2571 2453 2363 2252 1963 2049 1848 1729 1647 1671 1724 1673 1575 1491 853 1216 985 1332
1653 1219 595 49 1 20 27 1 0 14 73 189 392 802 952 862 918 934 937 1698 1580 2411 2045 1620 2773 2873 2536 2505 2191 2399 2393 2400 2389 2202 1791 1689 1755 1562 1433 1426 1443 1568 1640 1648 1526 1259 1523 1261 1428
1313 883 57 5 9 43 8 0 0 0 1 94 277 604 752 830 891 918 983 1501 2256 2152 2250 2367 2026 2308 2426 2400 2336 2387 2312 2304 2194 2094 2088 2017 1879 1778 1616 1544 1465 1550 1718 1423 1459 1435 1149 1400 1281
644 284 233 81 60 49 75 10 14 0 20 149 316 601 657 951 884 937 954 1268 1296 2337 2386 2387 2665 2589 2539 2070 2381 2270 2212 2197 2132 2152 1960 1814 1839 1880 1665 2036 2138 1567 1496 1548 1137 1209 1479 1168 990
193 209 97 36 53 49 104 55 161 190 194 17 122 431 617 752 865 1052 1128 1049 1402 2298 2262 2143 2557 3099 3098 2944 2342 2708 2237 2105 1977 2008 1937 1865 1877 1700 1440 1892 2201 1785 1673 1522 1507 1361 1620 1301 1048
66 107 172 16 0 46 75 126 186 239 77 124 232 463 596 745 1037 1258 1308 1271 1277 965 1942 2015 2363 2530 2895 2159 2895 2515 2120 1877 1973 1969 2387 2099 1849 1738 1638 2178 1563 1506 1891 1625 1470 1535 1608 1555 699
1 1 2 29 0 2 29 88 186 170 104 303 343 508 556 888 1187 1296 1239 1208 1320 1436 1304 2271 2156 2586 1990 1863 2399 2247 2265 2528 2365 2432 1996 2663 1951 2055 1513 1970 1565 1639 1950 1454 1770 1589 1148 1051 798
0 1 15 8 0 0 23 59 158 74 185 208 479 550 483 840 1039 1259 1329 1278 1319 1573 1438 1354 2237 2926 2701 2760 2644 2292 2084 2569 2533 1784 786 2207 1684 2081 2323 1556 1648 1395 1710 1127 1226 860 917 901 1060
3 2 6 4 8 0 0 0 40 50 191 155 493 503 525 694 877 1164 1161 1144 1346 1731 1868 2183 2977 3674 3532 3283 3485 2571 1787 2414 2153 1948 163 2105 2419 1730 2073 1888 1239 1106 1227 1902 2162 844 1392 1383 491
0 0 0 0 0 12 0 1 37 30 120 277 360 462 531 560 721 982 1199 1391 1398 1781 2100 2682 2929 3518 3454 3197 3114 2840 3227 2594 1910 1572 154 778 1869 1881 1503 1993 1622 1759 2204 2370 2642 1846 1604 1198 1712
0 0 0 0 0 9 28 9 9 2 68 370 310 489 764 907 740 976 1261 1674 1557 1932 1990 3012 3231 3308 3507 3827 4042 3345 2782 2568 2586 1882 791 568 495 523 1705 1352 2465 1833 2507 2644 2664 1573 1342 1461 1642
0 0 0 0 1 31 7 22 13 1 33 301 451 520 630 904 791 998 1238 1854 2023 1889 2612 2912 2391 3183 3595 3666 3633 2328 2207 1968 1425 2000 2000 1113 664 292 1152 1223 1223 1511 1806 2308 2481 2060 1578 1661 1685
0 0 0 0 44 44 44 24 42 30 56 311 559 773 681 899 1170 1512 1269 1420 1953 2645 3222 3433 3481 3421 3733 3511 3112 1967 805 915 1449 2010 1849 2042 1042 585 835 1222 1044 1241 1455 1893 2064 1720 1612 1441 1190
0 0 0 0 36 47 40 0 8 3 10 87 189 1037 1061 887 882 1233 1355 1334 1976 3023 3318 3765 3924 4128 4302 3480 3241 2667 700 1180 2178 1974 1861 2428 1197 651 977 775 857 1523 1284 954 1877 1718 1265 1497 1293
0 0 0 0 0 0 0 0 0 0 0 22 305 825 1292 1151 1080 1088 1149 1433 1880 2766 3728 4215 4321 4285 4300 3436 2571 1621 794 1719 1961 2129 2183 2256 1964 1055 567 689 334 1122 1023 1184 1340 915 1415 746 1123
0 0 0 0 0 0 0 0 0 0 10 4 25 290 864 1033 1309 1308 1451 1558 1831 2711 3864 4413 4280 4395 4515 4097 1607 1229 1614 1760 2547 2729 2092 1822 2069 1427 720 156 722 995 1037 979 283 407 976 1598 1373
0 0 0 0 0 0 0 0 0 0 0 1 22 59 364 897 1163 1706 1663 1637 1733 2915 3850 4466 4428 4755 4645 3894 2590 1283 964 2731 2894 2302 1959 1686 2044 1583 1243 1054 661 606 235 78 46 177 280 225 1576
0 0 0 0 0 0 0 0 1 0 28 36 14 39 3 979 1331 2043 1939 1940 1805 2696 3812 4597 4709 4886 4278 4028 2350 1885 2442 2454 2468 1917 1721 1836 1773 2029 1672 1202 1136 773 254 245 234 544 404 322 573
0 0 0 0 0 0 0 0 0 36 170 43 82 45 34 236 947 1859 2221 2267 2189 2873 4248 4475 4538 3473 3264 3803 3402 3227 3173 2865 2449 2948 1699 2069 2663 1919 1733 1659 1370 1548 1800 1175 853 1019 999 928 667
0 0 0 0 0 0 0 0 0 0 28 6 31 271 62 44 239 1244 2327 2631 2645 4096 4067 3901 2526 1673 1816 2915 2957 3218 2592 2927 2735 2001 1276 2393 2298 1949 920 1314 1511 1711 1673 1589 1478 1514 1346 576 703
0 0 0 0 0 0 0 0 0 6 55 24 11 100 38 93 269 1238 2732 2899 3905 3472 3245 2438 2203 1427 1326 1884 2397 2411 2303 2724 3105 2861 2458 2587 2217 2058 1304 594 643 1498 1874 1750 1444 1296 1237 1294 1288
0 0 0 0 0 0 49 2 29 81 69 0 0 14 97 174 572 1277 3054 3528 3883 2973 2584 1674 1639 1312 2212 2489 2726 3030 3341 3010 3475 2877 2978 2629 1772 1240 1232 490 497 685 959 1014 1029 1243 1279 1014 901
0 0 0 0 0 0 0 18 68 138 0 0 23 257 428 1057 949 1921 3809 3903 3750 3153 2559 2131 1786 2622 2699 2439 2632 3133 3368 3054 3264 2799 2817 1732 1513 978 581 462 341 719 678 742 1174 947 757 816 1050
0 0 0 0 3 14 1 106 250 298 65 802 1171 1227 1730 1800 1392 3424 3682 3735 3561 3118 2813 2451 2305 2353 2509 1883 2686 3240 2940 3224 3028 2908 2407 1849 1287 1038 419 490 830 837 355 310 705 1027 724 655 619
0 0 0 1 30 24 38 126 311 528 805 1635 1632 1789 2091 2433 2091 2538 2839 2854 3011 2693 2861 2341 2633 2445 2219 1850 2681 3296 3098 2963 2551 2174 1650 1429 1375 1076 647 690 714 941 847 887 705 827 782 575 709
3 0 0 2 13 34 106 98 19 307 617 1543 1815 1837 2272 2581 2593 2843 3062 3109 2713 2944 3027 3051 2969 2665 2086 3104 3222 3024 2864 2398 2492 2020 1864 1695 1372 1274 1235 822 809 428 541 458 272 473 825 713 796

GFSSGP_con_mucape_084.txt.gz
CAPE
1063 960 911 1109 1020 907 0 50 135 338 394 415 483 552 468 116 222 598 1063 1643 2389 2715 3033 3258 3739 3758 3266 3148 2853 2458 2246 1960 1963 1717 1739 1335 1592 1565 1584 1574 1575 1564 1391 1342 1437 1663 840 602 1087
808 536 960 1240 1090 33 28 51 92 278 307 375 614 774 874 1046 1106 1017 1331 1867 2275 2661 2830 3124 3723 3726 3467 3258 2935 2472 2050 1907 2094 1859 1794 1555 1873 1727 1630 1639 1531 1638 1524 1519 1728 1385 973 669 1420
496 648 983 1683 1296 3 28 33 120 127 267 255 387 555 823 1062 995 1008 1083 1570 1937 2115 2557 2898 3565 3467 3177 3011 3132 2792 2358 2145 2331 2101 1854 1933 1748 1617 1736 1571 1657 1934 1552 1655 1374 841 920 990 1269
1038 1682 1270 1464 310 0 1 0 178 243 210 255 442 743 709 1036 1056 1140 1087 1275 1329 1782 2246 3273 3498 2971 2681 2658 2796 2632 2425 2526 2428 2278 2056 1944 1946 1696 1752 1836 1673 1628 1460 1645 1239 761 1004 1179 1049
8 548 546 1025 317 0 2 68 224 280 285 431 598 609 665 831 1098 966 905 734 995 1406 2127 2727 3412 3470 3326 3130 2865 2621 2626 2607 2323 2161 2055 1953 1860 1780 1787 1867 1825 1444 1608 1639 827 615 588 857 812
102 48 310 30 27 0 0 13 216 372 405 577 564 532 559 933 999 1085 862 620 956 1183 2022 2295 2855 3051 2688 2475 2474 2496 2452 2412 2273 2620 2246 2144 2029 1940 1773 1682 1685 1835 1535 1458 928 978 850 991 853
989 805 717 121 14 1 10 4 28 255 476 597 534 499 554 818 920 1016 746 940 1124 1487 1764 2118 2208 2154 2503 2493 2587 2535 2654 2666 2434 2039 1750 2008 1969 1704 1689 1717 1645 1806 1564 1532 1101 1470 1020 1414 1193
1434 966 195 13 6 4 48 110 34 118 425 646 463 420 539 558 759 972 963 941 1015 1340 1667 1892 2161 1983 1923 2089 2773 2689 2505 2458 2449 2182 1895 1828 1601 1712 1566 2073 2262 1618 1727 1655 1445 1159 1509 1318 1469
1175 626 365 305 77 52 90 104 48 52 271 366 468 417 438 555 611 940 1103 1022 1108 936 1428 1690 1798 1848 1869 1825 2039 2851 2384 2285 2175 2011 2102 2021 1463 1658 1416 1636 1700 1655 1720 1622 1220 1609 1296 1382 1340
433 263 264 176 124 95 96 64 43 57 199 401 512 430 463 492 715 1175 1444 1470 1446 1219 1033 1173 1435 1537 1593 1816 1876 2127 1760 1793 1748 1752 1639 1573 1354 1231 1285 1604 1620 1642 1556 1612 1361 1597 1689 1324 862
2 52 19 7 41 104 101 83 47 49 146 405 441 436 465 484 505 1103 1479 1685 1616 1236 1234 1205 1214 1177 1228 1366 1504 1721 1659 1658 1535 1453 1421 1356 1153 682 750 1027 1113 1212 1624 1239 1663 1736 1582 1384 810
0 0 0 0 0 42 98 66 55 52 51 346 447 428 523 465 455 571 1064 1393 1303 1385 1277 1323 1372 1337 1287 1483 1316 1397 1388 1329 1276 1210 1243 1306 992 251 429 644 807 962 1305 1222 1181 1125 1294 1201 1060
0 0 0 0 0 0 74 96 72 52 39 422 419 456 483 460 505 502 621 663 1418 1433 1267 1335 1318 1391 1391 1443 1588 1309 1127 1190 1110 1042 1012 1012 943 420 399 615 740 768 894 1094 929 1000 831 750 567
0 0 0 0 0 0 16 31 106 65 46 309 351 414 386 413 562 659 735 729 684 1247 1178 1330 1280 1248 1414 1410 1650 1446 1199 1219 1164 1102 903 688 404 412 364 474 546 656 671 725 745 664 631 536 391
0 0 0 0 0 0 0 0 0 63 68 208 249 274 341 382 581 774 838 834 748 647 1107 1204 1279 1236 1179 1312 1315 1298 1163 1159 1202 1208 906 436 594 417 276 139 345 376 627 605 434 498 524 462 511
0 0 0 0 0 0 0 0 0 114 118 157 255 241 379 429 591 803 864 841 770 698 994 1210 1182 1258 1322 1318 1246 1286 1012 920 1181 1077 845 461 257 120 89 67 155 327 423 508 671 626 624 390 309
0 0 0 0 0 0 0 0 32 149 127 158 177 236 358 485 616 700 877 825 773 733 1122 1252 1279 1296 1508 1501 1369 1059 776 808 694 699 788 881 766 623 624 295 32 246 367 305 475 447 399 257 319
0 0 0 0 0 0 0 2 15 58 137 190 181 200 243 336 520 582 714 816 742 895 1111 1194 1429 1281 1636 1845 1585 1181 405 495 241 103 239 695 923 895 680 599 257 11 208 341 438 453 553 232 238
0 0 0 0 0 0 0 0 6 23 54 146 185 177 252 323 337 437 513 720 709 1210 1261 1327 1556 1688 1818 2043 1861 1515 1045 653 307 228 518 745 872 802 877 709 132 5 144 255 453 526 525 530 213
0 0 0 0 0 0 0 0 0 10 19 17 35 143 250 315 398 398 560 904 882 1343 1344 1479 1667 1952 2058 2019 1945 1770 1304 898 431 122 449 960 1093 1013 717 256 69 1 72 237 391 508 294 229 256
0 0 0 0 0 0 0 0 0 0 0 0 0 19 178 344 434 466 609 1129 1119 1383 1322 1566 1897 2137 2268 2147 2149 2029 1749 1237 1005 760 911 1091 1174 874 492 225 179 27 39 212 240 196 0 37 158
0 0 0 0 0 0 0 0 0 0 0 0 0 19 154 294 410 579 595 1170 1418 1518 1508 1610 2210 2537 2336 2259 2224 2101 1870 1589 1074 556 848 1079 1127 961 591 193 67 37 34 213 158 74 3 31 37
0 0 0 0 0 0 0 0 0 0 0 0 0 0 301 321 448 664 675 932 1647 1737 1675 1901 2538 2856 2677 2417 2292 2074 2258 1596 652 484 855 846 838 688 614 210 71 104 104 195 86 21 0 0 1
0 0 0 0 0 0 0 0 0 0 0 0 30 420 508 494 577 694 759 1080 1942 2308 1989 2620 3005 2884 2653 2491 2508 2483 1146 1069 1379 1363 1185 1022 810 677 587 457 306 107 91 125 29 0 5 6 38
0 0 0 0 0 0 0 0 0 0 0 0 68 521 667 689 737 860 801 1396 2686 2677 2932 2990 2934 3036 3032 2847 2284 1815 1990 1959 1889 1529 1168 1006 892 679 675 608 405 311 290 262 130 86 60 204 254
2 1 0 0 0 0 0 0 0 0 0 0 24 513 923 984 929 922 1096 2013 2801 3154 2862 2774 3212 2753 2531 2272 1756 1504 1807 1213 1135 1509 1174 859 789 641 451 275 326 384 408 337 406 425 396 449 336
0 1 0 0 0 0 0 0 0 0 0 0 10 16 81 807 1046 1203 1596 2750 3260 3083 2944 3002 3049 2775 2171 1823 1327 1412 166 276 1525 1768 1489 977 763 687 367 241 183 162 94 218 361 283 330 354 215
5 0 14 0 0 0 0 0 0 51 0 70 69 471 1302 1627 1750 2672 3009 3119 2954 2955 3074 3015 2804 2382 2082 1838 1843 744 356 1098 1827 1754 1529 1137 818 523 313 278 111 51 192 244 153 156 141 187 257
2 0 13 0 0 0 0 0 1126 738 553 694 1169 2339 2059 2498 2851 2715 2699 2745 2846 3012 3144 2933 2629 2432 1832 1897 1816 1954 2014 1868 2034 1603 1433 1166 657 470 251 164 143 201 226 131 155 206 179 225 183
0 6 3 6 0 0 0 1 524 1100 1371 1439 2428 3199 3286 3313 3173 2753 2732 3006 3089 3064 2966 2874 2461 1880 1934 2044 1669 1940 2186 2130 1614 1536 1220 922 547 303 2 0 55 114 207 71 40 179 130 180 122

GFSSGP_con_mucape_087.txt.gz
CAPE
842 923 721 754 796 501 50 233 281 327 375 516 507 415 337 171 298 261 928 1483 2204 2573 2875 3261 3715 3456 3057 2756 2392 2300 2126 2021 1962 1785 1415 1719 1960 1885 1835 1770 1743 1853 1675 1527 1608 1017 653 958 964
985 800 891 1006 711 2 18 79 228 300 456 549 634 698 829 1037 898 1053 1264 2021 2161 2500 2845 2912 3696 3635 3203 2883 2497 2323 2093 2046 1941 1865 1654 1863 1723 1702 1663 1657 1768 1454 1481 1619 1691 804 744 1433 768
725 527 895 1840 1042 0 45 152 288 333 450 431 550 654 921 970 801 972 1244 1981 2298 2459 2695 2839 3402 3453 3090 2937 2548 2306 2019 2216 2121 2011 1741 2041 1889 2008 1884 1615 1749 1618 1730 1807 1387 1016 987 1462 1187
539 1360 1069 1154 809 73 38 126 260 324 357 537 633 692 840 841 677 737 1568 1973 2033 2338 2581 3186 3485 3085 3038 2870 2586 2340 2079 2387 2261 2106 2064 1893 1853 1823 1521 1835 1945 1588 1782 1595 955 890 1178 1333 1336
731 225 82 476 560 14 71 143 169 190 289 587 640 653 767 772 870 1110 1432 1565 1567 1985 2296 2807 3512 3476 3252 2644 2574 2379 2361 2527 2395 2130 2203 2108 1825 2033 2226 1714 1777 1539 1681 1544 916 743 1354 1156 1275
100 139 56 23 51 14 52 168 215 294 538 583 550 570 657 846 793 921 922 960 1217 1647 2282 2675 3187 3298 2912 2622 2589 2462 2538 2667 2281 2259 2171 2016 1970 1934 2029 1944 1859 1604 1912 1133 809 602 935 877 896
1144 727 430 479 2 7 25 178 287 360 541 613 503 464 620 855 642 689 500 524 884 1456 2063 2412 2563 2591 2822 2818 2788 2735 2530 2262 2272 2754 2325 2210 2092 2018 1892 1809 2067 1793 1587 1334 1115 916 1034 961 876
1316 843 390 330 81 49 37 97 227 416 517 596 439 396 765 808 781 789 422 658 679 1422 1634 2002 2142 1963 1928 1933 2623 2450 2707 2684 2466 2238 1882 2140 2036 1716 1768 2273 2341 2002 1502 1705 1163 1636 1144 1570 1269
1387 810 429 476 374 175 38 98 146 243 514 566 453 396 442 827 803 790 758 811 858 1045 1456 1731 1913 1701 2021 2181 2472 2935 2616 2621 2469 2025 1827 1792 1368 1516 1458 1641 1853 1741 1807 1803 1472 1330 1696 1431 1549
784 447 236 226 230 197 70 65 123 201 526 447 425 333 460 781 750 695 620 639 649 703 1291 1481 1635 1639 1769 1955 2016 2207 1910 1870 1800 1828 1724 1672 1521 1378 1411 1538 1720 1766 1768 1767 1567 1759 1488 1222 955
395 372 64 8 8 6 96 69 116 159 320 326 319 286 332 588 698 662 607 558 692 860 843 1124 1247 1455 1436 1555 1663 1906 1744 1737 1703 1622 1608 1497 1251 1157 1018 978 1149 1211 1568 1398 1535 1469 1390 1297 838
0 0 0 0 0 14 41 58 109 133 133 208 281 230 275 438 786 874 800 738 750 1139 805 776 946 1154 1222 1305 1482 1558 1526 1491 1480 1344 1255 1239 1158 799 324 448 622 861 1203 1244 1307 1247 1319 1455 1074
0 0 0 0 0 0 10 53 71 90 157 385 314 283 270 328 618 907 1014 1010 986 1291 912 857 762 846 863 1108 1083 1141 1234 1177 1219 1169 1071 1079 1133 780 164 321 436 675 805 1323 1180 1114 1067 1078 1017
0 0 0 0 0 0 44 80 58 55 309 368 331 334 313 278 394 760 1006 1109 1294 1279 1020 1092 982 997 1006 1078 1235 1020 1044 941 839 871 850 862 935 920 273 449 452 683 669 821 988 854 800 693 609
0 0 0 0 0 0 0 2 51 83 398 445 373 336 351 331 276 339 664 1087 1154 1118 1149 1122 1058 1108 1164 1046 1302 1309 1248 1004 995 970 1040 933 599 252 241 310 453 532 558 565 706 563 483 425 493
0 0 0 0 0 0 0 0 0 2 299 393 434 415 368 392 333 333 391 479 786 1069 1188 1103 1131 1008 1042 1077 1137 1433 1427 1077 1087 1206 1041 814 553 504 320 148 212 399 384 439 427 417 378 488 482
0 0 0 0 0 0 0 0 0 15 189 283 361 389 433 369 348 421 457 535 582 674 961 1020 1102 1057 1004 1014 1226 1216 1253 858 1012 971 1035 820 507 255 123 171 116 127 311 456 377 321 470 486 364
0 0 0 0 0 0 0 0 0 37 91 212 257 318 375 354 340 406 566 650 743 723 711 901 1006 1122 1085 1032 1184 1156 1162 878 768 738 776 726 680 512 557 470 433 190 210 369 479 412 422 471 434
0 0 0 0 0 0 0 0 0 0 141 158 182 290 309 404 389 443 639 693 790 768 721 917 1019 1099 1204 1264 1293 1198 1104 939 511 451 355 153 354 565 817 602 581 555 257 199 304 371 342 307 223
0 0 0 0 0 0 0 0 0 0 140 175 177 218 269 329 400 495 590 745 812 837 770 907 1056 1084 1196 1336 1295 1232 1156 784 784 574 170 451 644 702 799 704 763 557 233 86 191 307 352 406 341
0 0 0 0 0 0 0 0 0 0 0 16 121 216 225 302 325 414 555 669 783 865 830 910 1097 1154 1158 1460 1444 1462 1446 1337 1260 881 672 406 795 930 959 932 491 209 46 68 151 211 267 357 277
0 0 0 0 3 0 0 0 0 0 0 0 0 42 194 307 292 358 458 668 708 798 881 999 1186 1371 1545 1716 1633 1729 1877 1844 1684 1392 1181 668 1085 927 894 700 406 227 71 103 156 243 127 78 151
0 0 0 0 0 6 0 0 0 0 0 0 0 0 0 98 285 374 447 786 794 884 996 1094 1402 1635 1857 1798 1834 1935 2035 1923 1821 1452 328 674 1113 990 868 719 376 148 138 69 192 173 121 63 0
0 0 0 0 0 0 0 0 0 0 0 0 0 0 0 12 251 397 447 820 961 1076 1138 1320 1816 2050 2004 1940 1990 2056 1956 1669 1159 767 1344 946 760 825 861 605 315 158 114 53 115 168 120 15 6
0 0 0 0 0 0 0 0 0 0 0 0 0 0 30 136 291 500 522 1124 1320 1398 1369 1780 2158 2327 2181 2052 2084 2032 1702 1139 1166 1051 1395 1141 1121 961 753 569 313 280 103 113 191 201 65 8 5
0 0 0 0 0 0 0 0 0 0 0 0 0 0 172 358 419 550 658 1382 1697 1634 1807 2092 2424 2376 2490 2475 2147 1766 1249 408 242 485 1061 1271 924 859 843 532 335 287 193 125 105 80 56 33 112
5 4 0 3 0 0 0 0 0 0 0 0 0 0 622 618 625 612 935 1818 2017 2033 2320 2236 2242 2405 2789 2512 2019 1326 762 136 4 13 844 1442 1121 893 801 618 250 239 250 213 216 261 307 245 365
0 0 25 10 0 0 0 0 0 0 193 68 0 37 694 857 846 983 1534 2460 2649 2439 2347 2166 2241 2611 2405 2041 1674 1119 720 230 45 313 1244 1467 1171 962 703 404 217 156 95 138 142 201 280 365 358
0 13 28 16 4 0 0 0 0 577 879 894 2390 2332 2389 2524 2559 2670 2691 2553 2644 2532 2395 2244 2543 2506 2251 1914 1497 1127 290 272 687 1314 1681 1311 1115 832 567 348 238 66 17 115 118 158 130 195 228
0 0 0 13 10 0 0 0 95 626 1396 2515 2963 3047 2985 2651 2516 2474 2521 2539 2494 2540 2667 2667 2711 2559 2511 1960 1770 1277 1495 1922 2036 1936 1488 1341 954 619 477 219 156 118 142 98 104 141 259 262 254

GFSSGP_con_mucape_093.txt.gz
CAPE
596 689 676 857 900 79 10 35 244 216 257 242 301 86 66 124 99 213 1109 1265 1144 1738 2227 2140 2598 2515 2014 2334 2396 2508 2499 2224 2298 2321 1998 1879 1929 1609 1767 1878 1820 1534 1591 1340 909 1417 1243 1182 970
441 829 752 1242 678 0 0 33 142 239 344 228 185 188 330 417 904 1235 1185 1414 1336 1872 2239 1986 2599 2631 2587 2560 2219 2430 2068 1702 1745 2123 2090 2051 1857 1702 1683 1632 1581 1445 1452 1109 825 1328 686 548 1015
568 771 907 1300 929 15 3 48 134 389 227 303 343 487 493 733 993 1029 1343 1432 1698 2037 1988 2310 3038 2639 2575 2676 2735 2514 2206 1889 1652 1820 2075 2032 1841 1801 1804 1680 1520 1592 1561 806 587 906 1096 719 1253
613 877 1122 1067 145 301 21 84 189 317 344 361 440 489 737 898 919 1068 1574 1669 1954 2072 1789 2989 3546 3160 2766 2681 2674 2753 2448 2208 1775 1894 1858 1817 1828 1636 1740 1672 1550 1660 1602 868 798 1344 921 1211 873
457 625 355 25 11 47 18 127 217 227 215 440 262 506 874 812 937 1447 1583 1547 1803 2044 1832 2681 3525 3599 3214 2842 2666 2752 2759 2283 1946 1935 2309 1943 1952 1706 1906 1754 1808 1729 1451 917 1197 1278 893 1159 1103
709 397 228 102 0 0 47 184 231 201 278 542 366 589 768 1083 1372 1630 1648 1482 1425 1771 1710 2215 3202 3575 3267 2586 2382 2280 2454 2327 2130 2099 1964 1918 1895 1596 1880 1818 1581 1642 1345 893 1148 1334 1411 1303 1214
1469 1236 671 364 2 0 9 116 239 242 345 337 302 320 837 1149 1375 1691 1792 1591 1455 1640 1719 2265 2642 2888 2981 2460 2303 2301 2603 2432 2330 2358 2376 2134 1926 1719 1753 1721 1580 1657 1596 945 1218 1421 1378 1320 1159
1390 1263 629 23 0 0 0 72 125 232 340 500 396 196 512 1044 1512 1581 1565 1536 1554 1607 1726 2152 2616 2683 2540 2470 2831 2817 2994 2647 2362 2397 2204 2181 2166 1979 1756 1629 1811 1655 1339 904 843 1237 1176 1191 1053
1493 1051 192 0 0 0 0 0 18 244 533 570 495 399 422 1083 1378 1191 1202 1283 1462 1530 1701 1875 2157 2620 2673 2385 2315 2839 2657 2465 2381 2621 2391 2310 1844 1869 1814 1682 1503 1730 1585 1120 963 879 1157 1038 967
1366 938 285 151 11 0 0 0 10 263 537 686 709 514 820 1173 1054 889 891 824 1033 1231 1433 1627 1815 2004 2289 2064 2506 2570 2319 1956 2178 2443 1846 1925 1935 1852 1487 1741 1567 1503 1590 1539 1359 1597 1288 1423 565
1133 762 563 373 139 13 0 0 3 44 409 527 750 741 894 985 962 753 522 479 728 977 1234 1473 1718 1924 1945 1844 2317 2137 2255 2480 2727 2322 2084 2186 2169 1931 1872 1880 1767 1783 1487 1565 1576 1463 1092 488 632
703 790 716 243 0 0 0 0 0 35 69 395 664 853 914 985 952 917 543 394 489 747 1035 1216 1436 1830 1863 1774 1807 2053 1921 2337 2538 2135 2423 2417 2108 2063 1904 1859 1595 1784 2232 1671 1799 1070 1469 1325 1125
512 325 2 40 0 0 0 0 0 51 57 205 580 916 839 910 958 990 769 341 405 546 753 1043 1324 1502 1523 1814 1741 2063 1919 1795 1895 1987 2228 2026 2101 1952 1472 1746 1129 1278 1194 2213 2095 1823 1258 1225 1369
0 0 0 0 0 0 0 0 9 47 38 238 692 960 852 788 927 1034 931 720 537 620 649 861 1243 1374 1427 1719 1975 1865 1899 1649 1810 1734 1909 2146 1563 1631 1731 1051 943 1246 1386 1657 1990 1938 1670 1316 927
0 0 0 0 0 0 0 0 0 13 236 275 689 912 955 855 908 1056 1057 999 936 876 811 836 1095 1242 1305 1487 1544 1445 1359 1569 1324 1473 1884 1801 1689 1813 2049 1710 1326 888 1515 1932 2077 2040 1767 1250 952
0 0 0 0 0 0 2 0 0 0 246 172 509 653 881 1056 977 1057 1116 1126 1059 1077 1065 952 749 996 1192 1247 1421 1229 1234 1285 1377 1260 1509 1621 1118 1527 1895 1535 1255 1212 1516 1960 1910 2271 1547 1128 1137
0 0 0 0 0 0 0 0 0 0 0 0 60 633 730 889 1064 1230 1245 1200 1203 1224 1368 1253 1075 1027 1172 1236 1156 1272 1502 1506 1531 1596 1482 1520 1487 1574 1627 1148 988 1540 1272 1432 1502 2088 2015 1193 1220
0 0 0 0 0 0 0 0 0 0 0 0 12 745 720 737 776 1019 1281 1305 1356 1421 1543 1601 1518 1668 1446 1289 1392 1276 1508 1788 1963 2018 1811 1725 1551 1461 1508 1232 1243 1161 1004 1149 1243 1393 1331 1562 1859
0 0 0 0 0 0 0 0 0 0 0 0 3 731 832 843 780 693 985 1235 1421 1594 1713 2054 2074 2316 1814 1490 1454 1530 1599 1700 1897 2087 1731 1756 1699 1303 1137 1166 955 773 572 700 1147 1515 1449 1203 1253
0 0 0 0 0 0 0 0 0 0 0 0 0 563 974 859 944 857 819 1008 1210 1533 2144 2086 2282 2453 2107 1838 2036 1681 1721 1773 1888 1871 1665 1816 1731 1624 1255 1130 1010 855 555 768 816 1034 1176 1211 1538
0 0 0 0 0 0 0 0 0 0 0 0 0 125 644 927 1018 1069 1158 1293 1054 1522 2067 2343 2620 2533 2525 2460 1999 1689 1624 1370 1400 1611 1657 1468 1289 1282 1492 1552 1357 1214 1088 1039 985 863 1088 1076 1186
0 0 9 8 31 0 0 0 0 0 0 0 0 8 524 844 1009 1166 1212 1198 1523 1468 1224 2008 2393 2647 2285 2669 2234 2406 1794 1709 1775 2130 1712 1459 1020 1073 960 1051 984 1121 1225 1217 1305 1061 1420 1496 1188
44 133 96 97 58 11 0 0 0 0 0 0 0 0 0 433 904 1016 1131 1546 1556 1274 1368 1788 2452 2594 2652 2411 2564 2280 2074 2443 1735 1497 1723 1803 1657 1508 1450 1395 1496 1241 1241 1128 962 603 725 1343 1101
51 43 54 100 84 41 0 0 0 0 0 0 0 0 0 0 32 765 1032 1349 1639 1516 1438 1953 2379 2587 2734 2386 2365 2588 2413 2010 1725 1691 1569 1148 1013 1571 1900 1902 1729 1696 1487 1182 844 818 728 857 804
66 57 51 70 62 17 0 0 0 0 0 0 0 0 0 0 0 0 739 1488 1721 1636 1800 1955 2565 2657 2431 2291 2379 2254 2286 2382 2017 1992 1593 851 697 1345 1986 1473 1314 1213 1361 1153 878 812 837 905 787
61 55 63 82 59 25 0 0 0 0 0 0 0 0 0 0 0 0 23 1060 1417 1640 2051 2029 2468 2660 2515 2466 2478 2454 2436 2145 1969 1993 836 800 639 1087 1884 1544 1365 1369 1202 1002 861 752 784 867 565
1 0 0 18 13 39 0 0 0 0 0 0 49 1227 1134 268 1 12 379 970 1382 1819 1868 2003 2380 2747 2534 2572 2592 2551 2618 2496 2157 1848 1387 758 1262 1418 1539 1610 1342 1100 1221 1035 870 592 881 806 824
21 1 13 3 26 1 6 1 0 0 5 5 1241 2516 2157 1384 720 975 1084 1347 1499 1568 1901 2075 2319 2666 2662 2673 2655 2727 2777 2499 1826 1218 1017 1028 1951 1793 1612 1457 1465 1297 693 743 879 780 461 120 88
1 1 0 20 2 12 4 7 50 16 258 830 2950 2757 2355 2324 1696 1734 1790 1781 1833 1981 2154 2326 2584 2635 2756 2835 2880 2852 2575 1773 1024 745 888 1378 2161 1816 1629 1515 1351 1088 1011 1126 1191 959 685 634 379
137 174 73 65 2 0 3 20 7 708 1861 2985 2928 2879 2584 2677 2470 2567 2501 2487 2421 2537 2619 2627 2810 2777 2847 2949 3026 2565 1928 1108 782 428 411 2120 2110 1656 1565 1371 1198 1028 968 942 848 598 388 567 566

GFSSGP_con_mucape_096.txt.gz
CAPE
680 628 932 1209 1651 730 0 6 0 0 0 119 126 100 154 244 209 863 1158 1233 1079 1332 1715 2180 2600 2484 2235 2251 2630 2148 2132 2121 2075 2089 2063 2001 2096 1911 1467 1459 1683 1689 1397 1458 1496 1454 1478 1284 1358
672 812 1116 1434 1172 0 0 0 0 41 2 70 88 110 105 378 800 1367 1206 1167 1175 1308 1656 1655 2582 2538 2804 2796 2828 2812 2256 2161 1926 1873 1819 1798 1707 1663 1506 1612 1656 1685 1570 1102 1420 1394 1230 1161 945
675 1038 1498 1835 160 0 5 0 51 189 81 18 30 125 147 561 1078 984 1120 1159 1228 1447 1400 1834 2859 2648 2401 2699 2860 2657 2131 1902 2261 2134 2227 2020 1754 1761 1540 1683 1455 1515 1123 1023 1428 805 659 694 994
1147 1417 1656 1312 14 27 0 11 128 289 387 162 2 137 475 969 923 844 1127 1088 1453 1531 1413 2278 2796 2787 2456 2275 2333 2418 2278 1733 1830 1993 2007 1969 1898 1951 1788 1683 1519 1661 1189 692 896 1187 903 1260 1331
1071 1274 994 47 8 0 11 126 189 150 243 188 11 98 353 898 906 1154 1127 1196 1453 1449 1550 2311 2864 2883 2837 2400 2250 2210 2261 1873 1854 1868 1977 1867 1852 1687 1577 1738 1726 1602 1367 757 1327 1089 1262 992 892
1533 1267 437 138 10 0 7 12 333 248 385 509 113 113 471 1117 1324 1365 1213 1289 1256 1423 1537 2196 2866 3039 2834 2293 2236 2258 2271 2186 1922 2226 2161 2107 2153 1712 1680 1771 1701 1505 1046 1050 1463 1025 1315 1185 1357
2019 1957 267 26 0 0 0 0 75 240 379 387 253 95 653 954 1374 1460 1336 1169 1231 1354 1495 2176 2446 2552 2635 2635 2307 2296 2474 2278 2076 2127 2098 2113 1908 1875 1961 1787 1765 1579 1110 963 1357 1620 1385 1330 1294
1979 1860 345 7 0 0 0 0 0 35 356 587 440 109 267 844 1528 1705 1728 1388 1256 1317 1463 1837 2315 2483 2576 2407 2770 2526 2795 2367 2296 2422 2310 2090 1899 1848 1710 1894 1679 1799 1442 888 1532 1639 1499 1451 1191
2129 1584 451 18 0 11 0 0 0 30 255 798 696 390 245 921 1542 1619 1873 1714 1422 1344 1479 1643 1793 2250 2619 2507 2158 2566 2431 2541 2288 2463 2063 2120 2126 1892 1852 1658 1708 1595 1449 862 1015 1410 1378 1267 1046
1959 915 465 88 38 46 2 0 0 1 319 842 946 679 644 1351 1485 1339 1496 1428 1315 1234 1355 1455 1584 2001 2188 1824 2283 2153 2069 2332 1891 2286 2256 2029 1606 1606 1366 1763 1611 1567 1555 981 955 1022 1248 1117 607
893 815 482 349 314 125 0 0 0 0 49 678 968 1158 1168 1257 1398 1016 1004 1025 1106 1117 1232 1295 1428 1732 1798 1394 1763 1666 1967 1980 2098 2448 1979 1804 1695 1630 1152 1721 1293 1524 1617 1420 1095 1517 571 364 265
433 215 416 317 271 147 0 0 0 0 0 396 597 1219 1413 1155 1200 981 891 744 931 1060 1091 1299 1419 1601 1519 1478 1540 1817 1542 1992 2327 2107 2059 1955 1908 1670 1479 1415 1732 1726 2429 1619 1156 456 288 259 250
0 9 0 33 0 11 0 0 0 0 0 242 573 1327 1427 1306 891 1038 825 800 922 1141 1252 1410 1558 1771 1708 1841 1604 1672 1342 1728 1976 2068 2118 1800 1571 1677 1499 1379 1123 1171 1413 2806 2104 1332 559 717 367
0 0 0 0 0 0 0 0 0 0 6 189 760 1112 1372 1361 886 988 1060 827 943 1182 1417 1504 1667 1815 1832 1866 1749 1715 1490 1401 1626 1585 1633 2074 1725 2155 1299 1364 678 1683 1988 2447 1284 2314 961 596 334
0 0 0 0 0 0 0 0 0 7 44 203 671 988 1195 1384 1046 895 1212 1113 867 1106 1330 1515 1817 1757 1754 1861 1834 1745 1471 1466 1382 1256 1786 2087 2173 2534 2530 1505 951 1272 1758 2258 1704 1926 1298 996 524
0 0 0 0 0 0 0 0 0 0 0 0 0 69 680 1305 1247 929 1078 1377 1131 1135 1459 1607 1586 1718 1743 1684 1686 1532 1277 1378 1275 1146 1327 1987 2256 2165 2179 2186 1215 1059 1312 2397 1590 2175 1520 997 799
0 0 0 0 0 0 0 0 0 0 0 0 0 0 168 1024 1449 1322 1093 1302 1474 1621 1847 1957 1929 1697 1883 1838 1690 1621 1547 1452 1289 1440 1391 1708 1855 1798 2053 2122 1111 1530 1317 1470 2000 2200 1449 992 823
0 0 0 0 0 0 0 0 0 0 0 0 0 0 9 835 1560 1535 1324 1241 1515 1888 2108 2338 2252 2067 2183 2019 1962 1520 1242 1471 1504 1726 1787 1959 1670 2048 2218 2957 2239 1553 1040 994 1095 1280 1396 1196 1108
0 0 0 0 0 0 0 0 0 0 0 0 0 0 0 913 1227 1635 1549 1446 1469 1873 2271 2553 2573 3168 2449 2210 2050 1605 1198 1437 1817 1857 2083 2367 2156 2139 2654 1748 2397 2115 1473 1166 1386 1588 1510 1246 1203
0 0 0 0 0 0 0 0 0 0 0 0 0 0 0 701 1204 1584 1765 1754 1644 1939 2370 2863 3044 3236 3001 2547 2898 2118 1718 1483 1861 2071 2501 2114 2038 2348 2199 2266 2300 2190 2774 1493 1477 1768 1376 949 1110
0 0 0 0 0 7 0 0 0 0 0 0 0 0 0 794 1361 1735 1674 1936 1852 2008 2420 3034 3518 3697 3449 3476 2687 2653 2462 2373 2291 2546 2571 2659 2231 2461 2490 2242 2086 2112 1925 2866 1902 2002 1831 1501 1376
0 0 0 0 24 48 31 8 0 0 0 0 0 0 0 556 1355 1755 1866 1934 1959 2018 2415 3476 3964 4131 3608 3895 3457 3744 2698 2538 2376 2450 2362 2405 2618 2449 2376 2280 2148 2062 2676 2420 2693 2432 2491 2355 2244
0 0 0 56 121 130 89 82 5 0 0 0 0 0 0 302 1058 1516 2022 1974 1927 2005 2208 3517 3905 4501 4499 4391 3972 3334 3381 2387 2306 2762 2536 2927 2861 2413 1893 1865 1890 1756 1861 2174 2178 1891 1928 2110 2225
0 0 73 147 189 222 203 149 95 16 0 0 0 2 0 0 80 1029 1535 2118 2211 2003 1997 2573 3704 4546 4615 4153 3524 4427 4156 3400 2712 2718 2464 3399 2697 2559 2304 2198 2354 2093 2254 2338 2421 1850 1505 1500 1753
0 34 146 184 199 216 202 154 107 51 0 0 0 6 0 0 0 44 940 1598 2176 2314 2495 2196 3776 4073 3713 3408 3598 3368 3612 3627 3430 3207 3932 1889 1622 1686 2195 2664 2390 2621 2383 2305 2139 2057 1495 1396 1602
36 78 135 91 102 166 189 108 68 57 10 0 0 0 37 10 0 0 0 378 1731 2082 2969 2608 3237 3798 3503 3367 3856 3680 3619 3353 3195 3247 2921 1723 867 655 1000 2007 2219 2112 1905 1813 2162 2333 1290 1417 1786
52 15 92 64 168 142 57 196 181 24 38 85 180 728 1623 2193 2027 1634 894 142 1068 1955 2351 2613 3191 3629 3421 3377 3597 3694 3622 3555 3377 3100 3217 1878 1414 749 1364 2239 2038 2134 1943 1797 1752 2310 1185 1672 1668
18 30 128 152 188 239 34 161 233 188 133 110 448 1719 2853 2807 2414 1612 1082 721 992 1799 2139 2527 2914 3332 3358 3374 3615 3665 3622 3693 3549 3567 2682 1605 1349 1838 1871 2288 2338 2252 1972 1697 1785 2173 1433 1362 2236
115 72 48 104 158 267 299 174 217 265 219 587 1434 2751 3406 3168 2850 2053 1555 1564 1694 1840 2132 2540 2880 3257 3462 3781 3719 3786 3653 3750 3805 3148 2078 1558 1894 2256 2479 2284 2109 1945 1918 1624 1647 1564 1127 1220 1181
206 252 203 300 289 267 236 168 171 312 569 2160 2342 3213 3316 2937 3080 2926 2543 2287 2060 2092 2423 2706 3063 3372 3485 3714 3880 3764 3815 3872 3414 2320 1665 1560 2139 2544 2541 2109 1901 1713 1634 1674 1599 1366 1065 1083 933